Weather History for KPVJ - November, 2012

Change the Weather History Date:

Monday, November 19, 2012

  Actual Average (KADH) Record (KADH)
Temperature  
Mean Temperature 61 °F -  
Max Temperature 71 °F 63 °F 82 °F (1950)
Min Temperature 51 °F 42 °F 20 °F (1937)
Degree Days  
Heating Degree Days 4    
Growing Degree Days 11 (Base 50)    
Moisture  
Dew Point 45 °F    
Average Humidity 59    
Maximum Humidity 88    
Minimum Humidity 47    
Precipitation  
Precipitation 0.00 in - - ()
Sea Level Pressure  
Sea Level Pressure 30.14 in    
Wind  
Wind Speed 8 mph (SSE)    
Max Wind Speed 20 mph    
Max Gust Speed 21 mph    
Visibility 10 miles    
Events Rain    
Averages and records for this station are not official NWS values.
T = Trace of Precipitation, MM = Missing Value Source: NWS Daily Summary

Daily Weather History Graph

Daily Weather History Graph

Search for Another Location

Airport or City:

Trip Planner

Search our weather history database for the weather conditions in past years. The results will help you decide how hot, cold, wet, or windy it might be!

Date:

Astronomy

Nov. 19, 2012 Rise Set
Actual Time 7:07 AM CST 5:21 PM CST
Civil Twilight 6:40 AM CST 5:48 PM CST
Nautical Twilight 6:09 AM CST 6:19 PM CST
Astronomical Twilight 5:39 AM CST 6:49 PM CST
Moon 12:16 PM CST (11/19) 11:43 PM CST (11/19)
Length of Visible Light 11h 08m
Length of Day
10h 14m
Waxing Crescent, 41% of the Moon is Illuminated
Nov 19
Waxing Crescent
Nov 20
First Quarter
Nov 28
Full
Dec 6
Last Quarter
Dec 13
New

Hourly Weather History & Observations

Time (CST) Temp. Dew Point Humidity Pressure Visibility Wind Dir Wind Speed Gust Speed Precip Events Conditions
12:15 AM 55.4 °F 35.6 °F 47% 30.17 in 10.0 mi SSE 8.1 mph - N/A   Unknown
12:35 AM 55.4 °F 35.6 °F 47% 30.17 in 10.0 mi SSE 8.1 mph - N/A   Unknown
12:55 AM 55.4 °F 35.6 °F 47% 30.16 in 10.0 mi SSE 11.5 mph - N/A   Unknown
1:15 AM 55.4 °F 35.6 °F 47% 30.16 in 10.0 mi SSE 9.2 mph - N/A   Unknown
1:35 AM 55.4 °F 35.6 °F 47% 30.16 in 10.0 mi SSE 8.1 mph - N/A   Unknown
1:55 AM 55.4 °F 35.6 °F 47% 30.16 in 10.0 mi SSE 8.1 mph - N/A   Unknown
2:15 AM 55.4 °F 37.4 °F 51% 30.16 in 10.0 mi SSE 8.1 mph - N/A   Unknown
2:35 AM 55.4 °F 37.4 °F 51% 30.17 in 10.0 mi SSE 5.8 mph - N/A   Unknown
2:55 AM 55.4 °F 37.4 °F 51% 30.16 in 10.0 mi SSE 6.9 mph - N/A   Unknown
3:15 AM 55.4 °F 37.4 °F 51% 30.16 in 10.0 mi SSE 5.8 mph - N/A   Unknown
3:35 AM 55.4 °F 37.4 °F 51% 30.16 in 10.0 mi SSE 5.8 mph - N/A   Unknown
3:55 AM 53.6 °F 37.4 °F 54% 30.16 in 10.0 mi SSE 5.8 mph - N/A Rain Light Rain
4:15 AM 53.6 °F 37.4 °F 54% 30.16 in 10.0 mi SE 4.6 mph - N/A   Unknown
4:35 AM 53.6 °F 37.4 °F 54% 30.15 in 10.0 mi SSE 5.8 mph - N/A   Unknown
4:55 AM 53.6 °F 37.4 °F 54% 30.15 in 10.0 mi SE 5.8 mph - N/A   Unknown
5:15 AM 55.4 °F 37.4 °F 51% 30.15 in 10.0 mi SSE 6.9 mph - N/A   Unknown
5:35 AM 53.6 °F 37.4 °F 54% 30.15 in 10.0 mi SE 5.8 mph - N/A   Unknown
5:55 AM 53.6 °F 37.4 °F 54% 30.15 in 10.0 mi SSE 6.9 mph - N/A   Unknown
6:15 AM 53.6 °F 37.4 °F 54% 30.15 in 10.0 mi SSE 6.9 mph - N/A   Unknown
6:35 AM 53.6 °F 37.4 °F 54% 30.16 in 10.0 mi SSE 5.8 mph - N/A   Unknown
6:55 AM 53.6 °F 35.6 °F 51% 30.16 in 10.0 mi SSE 6.9 mph - N/A   Unknown
7:35 AM 51.8 °F 35.6 °F 54% 30.17 in 10.0 mi SSE 5.8 mph - N/A   Unknown
7:55 AM 51.8 °F 37.4 °F 58% 30.18 in 10.0 mi SSE 8.1 mph - N/A   Unknown
8:15 AM 53.6 °F 37.4 °F 54% 30.17 in 10.0 mi SSE 10.4 mph - N/A   Unknown
8:35 AM 55.4 °F 39.2 °F 54% 30.17 in 10.0 mi SSE 10.4 mph - N/A   Unknown
8:55 AM 57.2 °F 39.2 °F 51% 30.17 in 10.0 mi South 12.7 mph - N/A   Unknown
9:15 AM 59.0 °F 41.0 °F 51% 30.17 in 10.0 mi SSE 9.2 mph - N/A   Unknown
9:35 AM 59.0 °F 42.8 °F 55% 30.17 in 10.0 mi South 11.5 mph - N/A   Unknown
9:55 AM 60.8 °F 42.8 °F 52% 30.17 in 10.0 mi South 12.7 mph - N/A   Unknown
10:15 AM 62.6 °F 44.6 °F 52% 30.16 in 10.0 mi South 15.0 mph - N/A   Unknown
10:35 AM 64.4 °F 46.4 °F 52% 30.16 in 10.0 mi South 16.1 mph - N/A   Unknown
10:55 AM 66.2 °F 48.2 °F 52% 30.16 in 10.0 mi South 19.6 mph - N/A   Unknown
11:15 AM 66.2 °F 50.0 °F 56% 30.16 in 10.0 mi SSW 13.8 mph - N/A   Unknown
11:35 AM 68.0 °F 50.0 °F 52% 30.15 in 10.0 mi SSW 15.0 mph 20.7 mph N/A   Unknown
11:55 AM 69.8 °F 51.8 °F 53% 30.13 in 10.0 mi SSW 10.4 mph - N/A   Unknown
12:15 PM 69.8 °F 50.0 °F 49% 30.13 in 10.0 mi South 11.5 mph - N/A   Unknown
12:35 PM 69.8 °F 51.8 °F 53% 30.12 in 10.0 mi South 15.0 mph 18.4 mph N/A   Unknown
12:55 PM 69.8 °F 51.8 °F 53% 30.12 in 10.0 mi South 11.5 mph 19.6 mph N/A   Unknown
1:15 PM 69.8 °F 51.8 °F 53% 30.11 in 10.0 mi South 12.7 mph 18.4 mph N/A   Unknown
1:35 PM 71.6 °F 53.6 °F 53% 30.11 in 10.0 mi South 12.7 mph - N/A   Unknown
1:55 PM 71.6 °F 51.8 °F 50% 30.10 in 10.0 mi SW 12.7 mph - N/A   Unknown
2:15 PM 71.6 °F 51.8 °F 50% 30.10 in 10.0 mi SSW 12.7 mph - N/A   Unknown
2:35 PM 71.6 °F 51.8 °F 50% 30.10 in 10.0 mi SSW 8.1 mph - N/A   Unknown
2:55 PM 71.6 °F 51.8 °F 50% 30.10 in 10.0 mi South 5.8 mph - N/A   Unknown
3:15 PM 71.6 °F 51.8 °F 50% 30.09 in 10.0 mi WSW 8.1 mph - N/A   Unknown
3:55 PM 71.6 °F 51.8 °F 50% 30.09 in 10.0 mi SSW 8.1 mph - N/A   Unknown
4:15 PM 71.6 °F 51.8 °F 50% 30.10 in 10.0 mi South 8.1 mph - N/A   Unknown
4:35 PM 69.8 °F 53.6 °F 56% 30.10 in 10.0 mi South 5.8 mph - N/A   Unknown
4:55 PM 69.8 °F 53.6 °F 56% 30.10 in 10.0 mi SSE 5.8 mph - N/A   Unknown
5:15 PM 68.0 °F 53.6 °F 60% 30.10 in 10.0 mi SSE 5.8 mph - N/A   Unknown
5:35 PM 66.2 °F 53.6 °F 64% 30.11 in 10.0 mi SSE 4.6 mph - N/A   Unknown
5:55 PM 64.4 °F 51.8 °F 64% 30.11 in 10.0 mi SSE 4.6 mph - N/A   Unknown
6:15 PM 62.6 °F 51.8 °F 68% 30.12 in 10.0 mi SSE 4.6 mph - N/A   Unknown
6:35 PM 62.6 °F 51.8 °F 68% 30.13 in 10.0 mi SSE 4.6 mph - N/A   Unknown
6:55 PM 62.6 °F 51.8 °F 68% 30.13 in 10.0 mi Calm Calm - N/A   Unknown
7:15 PM 60.8 °F 51.8 °F 72% 30.14 in 10.0 mi ESE 4.6 mph - N/A   Unknown
7:35 PM 59.0 °F 51.8 °F 77% 30.15 in 10.0 mi ESE 4.6 mph - N/A   Unknown
7:55 PM 59.0 °F 51.8 °F 77% 30.15 in 10.0 mi SE 5.8 mph - N/A   Unknown
8:15 PM 59.0 °F 51.8 °F 77% 30.15 in 10.0 mi SSE 5.8 mph - N/A   Unknown
8:35 PM 59.0 °F 51.8 °F 77% 30.16 in 10.0 mi SSE 5.8 mph - N/A   Unknown
9:15 PM 57.2 °F 51.8 °F 82% 30.16 in 10.0 mi South 5.8 mph - N/A   Unknown
9:35 PM 57.2 °F 51.8 °F 82% 30.16 in 10.0 mi SSE 6.9 mph - N/A   Unknown
9:55 PM 55.4 °F 51.8 °F 88% 30.15 in 10.0 mi South 5.8 mph - N/A   Unknown
10:15 PM 53.6 °F 50.0 °F 88% 30.15 in 10.0 mi South 5.8 mph - N/A   Unknown
10:35 PM 55.4 °F 51.8 °F 88% 30.15 in 10.0 mi Calm Calm - N/A   Unknown
10:55 PM 55.4 °F 50.0 °F 82% 30.15 in 10.0 mi South 4.6 mph - N/A   Unknown
11:15 PM 53.6 °F 50.0 °F 88% 30.15 in 10.0 mi SSE 3.5 mph - N/A   Unknown
11:35 PM 53.6 °F 50.0 °F 88% 30.14 in 10.0 mi South 5.8 mph - N/A   Unknown
11:55 PM 53.6 °F 50.0 °F 88% 30.14 in 10.0 mi South 4.6 mph - N/A   Unknown